Location: Aiyekoto
(8.4333°N, 4.3667°E)
Time: 22:13:16
(UTC+00:00)

Centaur D-1A AC-31 - Pass Details

Date: 07 October 2020
Orbit: 553 x 36388 km, 27.2° (Epoch: 24 October)

Event Time Altitude Azimuth Distance (km) Brightness Sun altitude
Rises 12:15:52 0° 256° (WSW) 13,958 8.1 71.8°
Reaches altitude 10° 12:26:10 10° 259° (W) 15,457 8.5 70.1°
Maximum altitude 13:52:59 32° 276° (W) 28,421 10.7 51.7°
Drops below altitude 10° 17:47:23 10° 291° (WNW) 40,529 11.4 -5.1°
Sets 19:36:34 0° 295° (WNW) 34,854 10.8 -32.1°
